User: anonymous   Login
Location: Unspecified
(0.0000°N, 0.0000°E)
Time: 16:39:06
(UTC+00:00)
Language:

ATS 1 - Orbit

View from above orbital plane
View from above orbital plane
View from above satellite
View from above satellite

Ground track
Ground track

The orbit data is extracted from the following two-line orbital elements,

1  2608U 66110A   18169.79930573 -.00000103 +00000-0 +00000-0 0  9993
2  2608 002.1387 299.3091 0005298 281.8953 135.8635 01.00284003105502
Epoch (UTC): 18 June 2018 19:11:00
Eccentricity: 0.0005298
inclination: 2.1387°
perigee height: 35760 km
apogee height: 35805 km
right ascension of ascending node: 299.3091°
argument of perigee: 281.8953°
revolutions per day: 1.00284003
mean anomaly at epoch: 135.8635°
orbit number at epoch: 10550

The dashed part of the orbit path shows where the satellite is in the earth's shadow,  

DLR